Weather History for KCTB - December, 2013

Change the Weather History Date:

Saturday, December 28, 2013

  Actual Average Record
Temperature  
Mean Temperature 12 °F 21 °F  
Max Temperature 21 °F 32 °F 60 °F (1956)
Min Temperature 3 °F 11 °F -35 °F (1968)
Degree Days  
Heating Degree Days 53 44  
Month to date heating degree days 1325 1198  
Since 1 July heating degree days 3414 3461  
Cooling Degree Days 0 0  
Month to date cooling degree days 0 0  
Year to date cooling degree days 226 162  
Moisture  
Dew Point 3 °F    
Average Humidity 75    
Maximum Humidity 84    
Minimum Humidity 66    
Precipitation  
Precipitation T in 0.01 in 0.40 in (1923)
Month to date precipitation 0.44 0.20  
Year to date precipitation 14.91 10.88  
Snow  
Snow 0.00 in - - ()
Snow Depth T in    
Sea Level Pressure  
Sea Level Pressure 30.37 in    
Wind  
Wind Speed 14 mph (NNW)    
Max Wind Speed 52 mph    
Max Gust Speed 60 mph    
Visibility 9 miles    
Events Snow    
T = Trace of Precipitation, MM = Missing Value Source: NWS Daily Summary

Daily Weather History Graph

Daily Weather History Graph

Search for Another Location

Airport or City:

Trip Planner

Search our weather history database for the weather conditions in past years. The results will help you decide how hot, cold, wet, or windy it might be!

Date:

Astronomy

Dec. 28, 2013 Rise Set
Actual Time 8:21 AM MST 4:41 PM MST
Civil Twilight 7:44 AM MST 5:17 PM MST
Nautical Twilight 7:04 AM MST 5:58 PM MST
Astronomical Twilight 6:26 AM MST 6:36 PM MST
Moon 3:51 AM MST (12/28) 1:44 PM MST (12/28)
Length of Visible Light 9h 33m
Length of Day
8h 19m
Waning Crescent, 18% of the Moon is Illuminated
Dec 28
Waning Crescent
Jan 1
New
Jan 7
First Quarter
Jan 15
Full
Jan 23
Last Quarter

Hourly Weather History & Observations

Time (MST) Temp. Windchill Dew Point Humidity Pressure Visibility Wind Dir Wind Speed Gust Speed Precip Events Conditions
12:31 AM 17.1 °F -5.3 °F 12.0 °F 81% 29.95 in 4.0 mi NNW 41.4 mph 48.3 mph 0.00 in Snow Light Snow
12:56 AM 14.0 °F -8.5 °F 7.0 °F 74% 30.07 in 9.0 mi NNW 36.8 mph 51.8 mph 0.00 in   Mostly Cloudy
1:22 AM 10.9 °F -13.8 °F 3.9 °F 73% 30.01 in 9.0 mi NNW 41.4 mph 56.4 mph 0.00 in   Overcast
1:56 AM 10.0 °F -15.3 °F 1.9 °F 70% 30.13 in 10.0 mi NNW 42.6 mph 49.5 mph 0.00 in   Overcast
2:56 AM 8.1 °F -15.2 °F 1.9 °F 76% 30.25 in 2.5 mi NNW 31.1 mph 43.7 mph 0.00 in Snow Light Snow
3:08 AM 8.1 °F -14.2 °F 1.0 °F 73% 30.16 in 3.0 mi NNW 27.6 mph 41.4 mph 0.00 in Snow Light Snow
3:56 AM 7.0 °F -18.8 °F -0.0 °F 73% 30.30 in 9.0 mi NNW 39.1 mph 47.2 mph 0.00 in Snow Light Snow
4:20 AM 6.1 °F -19.8 °F -2.0 °F 69% 30.20 in 5.0 mi NNW 38.0 mph 44.9 mph 0.00 in Snow Light Snow
4:34 AM 6.1 °F -18.2 °F -2.0 °F 69% 30.22 in 10.0 mi NNW 32.2 mph 40.3 mph 0.00 in   Overcast
4:56 AM 5.0 °F -20.7 °F -2.0 °F 73% 30.36 in 9.0 mi NNW 35.7 mph 43.7 mph 0.00 in   Overcast
5:56 AM 5.0 °F -15.7 °F -2.0 °F 73% 30.42 in 10.0 mi NNW 20.7 mph 28.8 mph N/A   Overcast
6:56 AM 5.0 °F -9.1 °F -2.9 °F 70% 30.47 in 10.0 mi NNW 9.2 mph - N/A   Overcast
7:56 AM 3.9 °F -13.7 °F -2.9 °F 73% 30.49 in 10.0 mi North 13.8 mph - N/A   Overcast
8:56 AM 3.0 °F -9.3 °F -4.0 °F 73% 30.50 in 10.0 mi NE 6.9 mph - N/A   Overcast
9:56 AM 3.9 °F -6.9 °F -2.9 °F 73% 30.51 in 10.0 mi WSW 5.8 mph - N/A   Overcast
10:56 AM 8.1 °F -4.3 °F -0.0 °F 70% 30.48 in 10.0 mi WSW 8.1 mph - N/A   Overcast
11:56 AM 10.0 °F -3.7 °F 1.9 °F 70% 30.47 in 10.0 mi South 10.4 mph - N/A   Overcast
12:56 PM 12.0 °F 1.5 °F 3.9 °F 70% 30.45 in 10.0 mi South 6.9 mph - N/A   Overcast
1:56 PM 15.1 °F 4.2 °F 6.1 °F 68% 30.42 in 10.0 mi SE 8.1 mph - N/A   Overcast
2:56 PM 18.0 °F 7.7 °F 9.0 °F 68% 30.41 in 10.0 mi SE 8.1 mph - N/A   Mostly Cloudy
3:56 PM 18.0 °F 7.7 °F 9.0 °F 68% 30.42 in 10.0 mi ESE 8.1 mph - N/A   Overcast
4:56 PM 16.0 °F 4.4 °F 7.0 °F 68% 30.48 in 10.0 mi NE 9.2 mph - N/A   Overcast
5:56 PM 14.0 °F 2.0 °F 6.1 °F 71% 30.51 in 10.0 mi NE 9.2 mph - N/A   Overcast
6:56 PM 14.0 °F 2.9 °F 6.1 °F 71% 30.53 in 10.0 mi North 8.1 mph - N/A   Overcast
7:56 PM 9.0 °F -7.3 °F 3.9 °F 80% 30.55 in 10.0 mi NNW 13.8 mph - N/A   Overcast
8:25 PM 9.0 °F -7.9 °F 3.9 °F 80% 30.32 in 9.0 mi NNW 15.0 mph - N/A   Overcast
8:47 PM 8.1 °F 1.4 °F 3.9 °F 83% 30.30 in 10.0 mi Variable 3.5 mph - 0.00 in   Overcast
8:56 PM 9.0 °F 0.6 °F 3.9 °F 80% 30.54 in 10.0 mi NNW 4.6 mph - 0.00 in   Overcast
9:22 PM 9.0 °F 0.6 °F 3.9 °F 80% 30.30 in 10.0 mi WSW 4.6 mph - N/A   Overcast
9:56 PM 9.0 °F - 5.0 °F 84% 30.53 in 10.0 mi Calm Calm - N/A   Overcast
10:56 PM 8.1 °F - 3.9 °F 83% 30.51 in 10.0 mi Calm Calm - N/A   Clear
11:56 PM 6.1 °F -5.6 °F 3.0 °F 87% 30.50 in 10.0 mi SW 6.9 mph - N/A   Clear